DW8673 Jerrabomberra AU current weather conditions

sailwx.info

Wind from 014 at 1 knots gusting 2

Air temperature 21.1° C
Dewpoint 1.4° C

Last reported at 2014-Sep-21 02:43 UTC.
Time now 2014-Sep-21 04:01 UTC

Location: S 35°23' E 149°12'.
View on Google Maps.

See reports from other nearby stations

  
Tides and Currents Weather Stations Pressure Air Temp Water Temp Dewpoint Dewpoint Depression Visibility Wind Speed Wind Dir Waves Ship Positions
date/time (UTC)wind fromknots sea level pressurealtimeterstation pressurevisibilityair tempwater tempwave heightnotes
2014-Sep-21 02:43 014 1 gusting 2 21.1
2014-Sep-21 02:32 043 2 gusting 4 20.6
2014-Sep-21 02:12 143 1 gusting 1 20.6
2014-Sep-21 02:03 085 0 gusting 6 20.0
2014-Sep-21 01:42 269 1 gusting 5 19.4
2014-Sep-21 01:32 066 1 gusting 5 18.9
2014-Sep-21 01:12 249 1 gusting 5 18.9
2014-Sep-21 01:02 248 2 gusting 5 18.9
2014-Sep-21 00:43 116 1 gusting 5 17.2
2014-Sep-21 00:33 285 2 gusting 5 17.8
2014-Sep-21 00:13 304 1 gusting 5 16.7
2014-Sep-21 00:02 276 1 gusting 4 17.8
2014-Sep-20 23:42 297 2 gusting 4 15.6
2014-Sep-20 23:33 342 0 gusting 4 14.4
2014-Sep-20 23:12 264 1 gusting 2 15.0
2014-Sep-20 23:02 329 0 gusting 2 16.1
2014-Sep-20 22:42 252 0 gusting 2 12.8
2014-Sep-20 22:33 272 0 gusting 2 11.7
2014-Sep-20 22:12 338 0 gusting 2 11.7
2014-Sep-20 22:02 287 0 gusting 1 11.1
2014-Sep-20 21:42 222 0 gusting 1 10.0
2014-Sep-20 21:32 274 9.4
2014-Sep-20 21:12 265 0 gusting 1 8.9
2014-Sep-20 21:02 297 0 gusting 1 8.3
2014-Sep-20 20:43 130 7.8
2014-Sep-20 20:32 338 7.8
2014-Sep-20 20:12 248 7.2
2014-Sep-20 20:03 045 6.7
2014-Sep-20 19:43 045 6.7
2014-Sep-20 19:32 068 6.7
2014-Sep-20 19:12 090 6.1
2014-Sep-20 19:03 090 6.1
2014-Sep-20 18:42 112 5.6
2014-Sep-20 18:33 112 6.1
2014-Sep-20 18:13 6.1
2014-Sep-20 18:02 6.7
2014-Sep-20 17:43 248 6.7
2014-Sep-20 17:32 202 6.7
2014-Sep-20 17:12 022 6.7
2014-Sep-20 17:02 259 0 gusting 0 6.1
2014-Sep-20 16:42 248 6.1
2014-Sep-20 16:32 329 5.6
2014-Sep-20 16:13 112 5.0
2014-Sep-20 16:03 112 4.4
2014-Sep-20 15:42 068 5.0
2014-Sep-20 15:32 112 5.0
2014-Sep-20 15:12 202 5.6
2014-Sep-20 15:02 203 5.6
2014-Sep-20 14:42 045 6.7
2014-Sep-20 14:32 045 6.7
2014-Sep-20 14:12 045 6.7
2014-Sep-20 14:03 6.7
2014-Sep-20 13:42 135 6.1
2014-Sep-20 13:32 117 6.1
2014-Sep-20 13:12 090 6.1
2014-Sep-20 13:02 037 6.7
2014-Sep-20 12:42 135 6.7
2014-Sep-20 12:32 338 7.2
2014-Sep-20 12:13 264 7.8
2014-Sep-20 12:02 292 8.3
2014-Sep-20 11:43 082 0 gusting 1 9.4
2014-Sep-20 11:32 109 0 gusting 2 9.4
2014-Sep-20 11:13 086 0 gusting 2 10.0
2014-Sep-20 11:03 059 1 gusting 5 10.0
2014-Sep-20 10:42 098 1 gusting 4 10.6
2014-Sep-20 10:32 116 1 gusting 4 10.6
2014-Sep-20 10:12 085 1 gusting 5 11.1
2014-Sep-20 10:03 089 1 gusting 6 11.1
2014-Sep-20 09:42 099 2 gusting 5 11.7
2014-Sep-20 09:32 117 0 gusting 6 12.2
2014-Sep-20 09:12 146 0 gusting 5 12.8
2014-Sep-20 09:02 223 1 gusting 5 12.8
2014-Sep-20 08:42 097 1 gusting 4 13.3
2014-Sep-20 08:32 118 0 gusting 6 13.9
2014-Sep-20 08:13 149 1 gusting 4 14.4
2014-Sep-20 08:03 159 1 gusting 4 14.4
2014-Sep-20 07:42 108 1 gusting 4 15.6
2014-Sep-20 07:32 124 0 gusting 2 16.7
2014-Sep-20 07:12 176 0 gusting 1 17.2
2014-Sep-20 07:03 248 16.7
2014-Sep-20 06:43 248 1 gusting 5 18.3
2014-Sep-20 06:33 231 2 gusting 4 20.0
2014-Sep-20 06:13 304 1 gusting 4 21.7
2014-Sep-20 06:03 224 1 gusting 5 22.2
2014-Sep-20 05:43 241 1 gusting 4 22.2
2014-Sep-20 05:33 255 1 gusting 5 22.2
2014-Sep-20 05:13 275 1 gusting 4 22.8
2014-Sep-20 05:03 230 1 gusting 5 22.2
2014-Sep-20 04:43 309 0 gusting 2 22.2
2014-Sep-20 04:33 076 0 gusting 4 22.2
2014-Sep-20 04:13 277 2 gusting 6 22.2
2014-Sep-20 04:03 245 1 gusting 5 22.2
2014-Sep-20 03:43 283 3 gusting 5 21.7
2014-Sep-20 03:33 256 1 gusting 5 21.7
2014-Sep-20 03:13 257 2 gusting 5 21.7
2014-Sep-20 03:03 257 1 gusting 5 21.7
2014-Sep-20 02:43 244 1 gusting 5 21.7
2014-Sep-20 02:33 264 2 gusting 4 21.1
2014-Sep-20 02:13 280 0 gusting 2 20.6
2014-Sep-20 02:03 260 1 gusting 2 20.0
2014-Sep-20 01:43 181 2 gusting 4 20.0
2014-Sep-20 01:33 219 1 gusting 2 20.0
2014-Sep-20 01:13 292 1 gusting 4 18.9
2014-Sep-20 01:03 082 1 gusting 6 18.3
2014-Sep-20 00:43 265 1 gusting 6 17.8
2014-Sep-20 00:33 227 1 gusting 5 17.2
2014-Sep-20 00:13 144 1 gusting 4 16.7
2014-Sep-20 00:03 207 1 gusting 6 15.6
2014-Sep-19 23:43 109 2 gusting 6 14.4
2014-Sep-19 23:33 210 2 gusting 11 14.4
2014-Sep-19 23:13 160 4 gusting 6 13.9
2014-Sep-19 23:03 153 1 gusting 8 13.3
2014-Sep-19 22:43 162 4 gusting 10 12.2
2014-Sep-19 22:33 132 5 gusting 10 11.7
2014-Sep-19 22:13 141 3 gusting 10 11.1
2014-Sep-19 22:03 120 4 gusting 8 10.6
2014-Sep-19 21:43 193 2 gusting 4 10.0
2014-Sep-19 21:33 169 2 gusting 5 8.9
2014-Sep-19 21:13 179 5.0
2014-Sep-19 21:03 132 0 gusting 1 3.3
2014-Sep-19 20:43 253 2.2
2014-Sep-19 20:33 135 1.7
2014-Sep-19 20:13 213 0 gusting 1 1.1
2014-Sep-19 20:03 342 1.1
2014-Sep-19 19:43 202 1.1
2014-Sep-19 19:33 090 1.1
2014-Sep-19 19:13 112 1.1
2014-Sep-19 19:03 292 1.1
2014-Sep-19 18:43 158 1.7
2014-Sep-19 18:33 112 1.7
2014-Sep-19 18:13 2.2
2014-Sep-19 18:03 068 2.2
2014-Sep-19 17:43 338 2.2
2014-Sep-19 17:33 324 2.2
2014-Sep-19 17:13 090 2.2
2014-Sep-19 17:03 282 2.2
2014-Sep-19 16:43 135 2.8
2014-Sep-19 16:33 135 2.2
2014-Sep-19 16:13 068 2.8
2014-Sep-19 16:03 090 2.8
2014-Sep-19 15:43 090 2.8
2014-Sep-19 15:33 090 2.8
2014-Sep-19 15:13 135 3.3
2014-Sep-19 15:03 135 3.3
2014-Sep-19 14:43 180 3.3
2014-Sep-19 14:33 270 3.9
2014-Sep-19 14:13 292 4.4
2014-Sep-19 14:03 009 0 gusting 0 4.4
2014-Sep-19 13:43 112 5.6
2014-Sep-19 13:33 202 0 gusting 1 5.6
2014-Sep-19 13:13 159 0 gusting 1 6.1
2014-Sep-19 13:03 326 5.6
2014-Sep-19 12:43 196 0 gusting 0 5.6
2014-Sep-19 12:33 118 5.6
2014-Sep-19 12:13 090 6.1
2014-Sep-19 12:03 112 5.6
2014-Sep-19 11:43 202 6.1
2014-Sep-19 11:33 247 6.7
2014-Sep-19 11:13 090 7.2
2014-Sep-19 11:03 135 7.2
2014-Sep-19 10:43 231 7.8
2014-Sep-19 10:33 270 7.8
2014-Sep-19 10:13 068 8.3
2014-Sep-19 10:03 068 8.3
2014-Sep-19 09:43 172 8.9
2014-Sep-19 09:33 158 8.9
2014-Sep-19 09:13 220 10.0
2014-Sep-19 09:03 101 0 gusting 0 10.6
2014-Sep-19 08:43 090 11.1
2014-Sep-19 08:33 112 11.7
2014-Sep-19 08:13 093 12.8
2014-Sep-19 08:03 148 0 gusting 2 13.3
2014-Sep-19 07:43 314 0 gusting 2 15.0
2014-Sep-19 07:33 004 1 gusting 5 15.0
2014-Sep-19 07:13 351 1 gusting 4 16.1
2014-Sep-19 07:03 286 1 gusting 5 16.1
2014-Sep-19 06:43 031 2 gusting 5 17.8
2014-Sep-19 06:33 334 1 gusting 5 18.3
2014-Sep-19 06:13 312 1 gusting 5 18.9
2014-Sep-19 06:03 323 2 gusting 6 18.9
2014-Sep-19 05:43 334 2 gusting 6 20.0
2014-Sep-19 05:33 314 1 gusting 6 20.0
2014-Sep-19 05:13 319 1 gusting 4 20.6
2014-Sep-19 05:03 255 1 gusting 4 20.6
2014-Sep-19 04:43 306 1 gusting 2 20.6
2014-Sep-19 04:33 254 1 gusting 6 20.0
2014-Sep-19 04:13 349 1 gusting 5 20.0
2014-Sep-19 04:03 352 2 gusting 6 20.0